x

West Santa Barbara 38 Nm West Of Santa Barbara, Ca (46054) Weather Station

11:20 - Sun 25th Jun 2017 All times are PDT. -7 hours from GMT.

  • Wind
    27mph, 34mph gusts
  • Sea Temp 54°f
  • Aire Temp 57°f
  • Sea Pressure 1013.5mb
  • West Santa Barbara  38 Nm West Of Santa Barbara, Ca
  • West Santa Barbara  38 Nm West Of Santa Barbara, Ca

More Historic Weather Station data

Upgrade to MSW Pro to gain access to the past 30 days of data for over 8000 Wavebouys and Weather Stations around the globe.

Join Pro

Comparision Forecast

View Surf forecast
   
dom 06/25 11:20  -   -   -  27 34 mph 1013.5mb 54f 57f
11:10  -   -   -  27 34 mph 1013.5mb 54f 57f
11:00  -   -   -  29 34 mph 1013.4mb 54f 57f
10:50 5ft 5s 5s 29 34 mph 1013.4mb 54f 57f
10:40 5ft  -  5s 27 31 mph 1013.4mb 54f 57f
10:30  -   -   -  27 34 mph 1013.4mb 54f 57f
10:20  -   -   -  29 34 mph 1013.1mb 54f 57f
10:10  -   -   -  27 34 mph 1013.5mb 54f 57f
10:00  -   -   -  27 34 mph 1013.5mb 54f 57f
9:50 5ft 5s 5s 27 34 mph 1013.4mb 55f 57f
9:40  -   -   -  27 36 mph 1013.1mb 55f 57f
9:30  -   -   -  29 34 mph 1013mb 55f 57f
9:20  -   -   -  29 34 mph 1013mb 55f 57f
9:10  -   -   -  27 34 mph 1013mb 55f 57f
9:00  -   -   -  27 31 mph 1013mb 55f 57f
8:50 5ft 5s 5s 27 34 mph 1013mb 55f 56f
8:40  -   -   -  29 34 mph 1013mb 55f 57f
8:30  -   -   -  29 36 mph 1012.9mb 55f 57f
8:20  -   -   -  27 34 mph 1012.9mb 55f 56f
8:10  -   -   -  27 34 mph 1013mb 55f 57f
8:00  -   -   -  27 34 mph 1012.8mb - 56f
7:50 5ft 5s 5s 27 34 mph 1012.8mb 55f 56f
7:40 5ft  -  5s 29 36 mph 1012.9mb 55f 56f
7:30  -   -   -  29 34 mph 1012.9mb 55f 56f
7:20  -   -   -  27 34 mph 1012.8mb 55f 56f
7:10  -   -   -  27 34 mph 1012.8mb 54f 56f
7:00  -   -   -  27 31 mph 1012.5mb 54f 56f
6:50 5.5ft 5s 5s 27 31 mph 1012.5mb 54f 56f
6:40  -   -   -  27 31 mph 1012.6mb 54f 56f
6:30  -   -   -  27 34 mph 1012.8mb 54f 56f
6:20  -   -   -  29 34 mph 1012.6mb 54f 56f
6:10  -   -   -  27 34 mph 1012.5mb 54f 56f
6:00  -   -   -  29 36 mph 1012.6mb 54f 56f
5:50 6ft 6s 5s 29 36 mph 1012.8mb 54f 56f
5:40 6ft  -  5s 29 36 mph 1012.8mb 54f 56f
5:30  -   -   -  29 38 mph 1012.6mb 54f 56f
5:20  -   -   -  29 36 mph 1012.6mb 54f 56f
5:10  -   -   -  29 36 mph 1012.6mb 54f 56f
5:00  -   -   -  27 34 mph 1012.9mb 54f 56f
4:50 5.5ft 6s 5s 27 34 mph 1013mb 55f 56f
4:40 5.5ft  -  5s 29 38 mph 1012.9mb 55f 56f
4:30  -   -   -  29 36 mph 1012.9mb 55f 56f
4:20  -   -   -  29 36 mph 1013mb 55f 56f
4:10  -   -   -  29 36 mph 1013mb 55f 56f
4:00  -   -   -  29 38 mph 1013.3mb - 56f
3:50 5.5ft 6s 5s 29 36 mph 1013.3mb 54f 56f
3:40 5.5ft  -  5s 27 34 mph 1013.5mb 54f 56f
3:30  -   -   -  27 34 mph 1013.5mb 53f 56f
3:20  -   -   -  27 34 mph 1013.6mb 53f 56f
3:10  -   -   -  27 36 mph 1013.6mb 53f 56f
3:00  -   -   -  27 34 mph 1013.6mb 54f 56f
2:50 6ft 5s 5s 27 34 mph 1013.6mb 54f 56f
2:40 6ft  -  5s 27 34 mph 1013.8mb 54f 56f
2:30  -   -   -  27 34 mph 1013.9mb 54f 56f
2:20  -   -   -  27 34 mph 1013.9mb 53f 56f
2:10  -   -   -  27 36 mph 1013.8mb 53f 56f
2:00  -   -   -  27 34 mph 1014mb 53f 56f
1:50 5.5ft 6s 5s 27 36 mph 1014mb 53f 56f
1:40 5.5ft  -  5s 27 31 mph 1014.3mb 53f 56f
1:30  -   -   -  27 31 mph 1014.1mb 53f 56f
1:20  -   -   -  27 36 mph 1014.3mb 53f 55f
1:10  -   -   -  27 31 mph 1014.1mb 53f 55f
1:00  -   -   -  25 31 mph 1014.3mb 54f 55f
12:50 5.5ft 6s 5s 27 31 mph 1014.3mb 54f 55f
12:40  -   -   -  27 34 mph 1014.1mb 54f 55f
12:30  -   -   -  27 34 mph 1014mb 54f 55f
12:20  -   -   -  25 34 mph 1014.3mb 55f 55f
12:10  -   -   -  27 34 mph 1014mb 55f 55f
12:00  -   -   -  27 31 mph 1014mb 55f 55f
11:50 5.5ft 5s 5s 25 31 mph 1013.8mb 56f 55f
11:40 5.5ft  -  5s 27 31 mph 1014mb 56f 55f
11:30  -   -   -  27 34 mph 1014mb 56f 55f
11:20  -   -   -  27 31 mph 1013.9mb 56f 55f
11:10  -   -   -  27 34 mph 1013.8mb 55f 55f
11:00  -   -   -  27 34 mph 1013.8mb 56f 55f
10:50 5ft 14s 5s 25 31 mph 1013.5mb 56f 55f
10:40  -   -   -  27 31 mph 1013.6mb 56f 55f
10:30  -   -   -  27 34 mph 1013.5mb 56f 54f
10:20  -   -   -  27 31 mph 1013.4mb 56f 54f
10:10  -   -   -  27 34 mph 1013.5mb 56f 55f
10:00  -   -   -  25 29 mph 1013.5mb 56f 55f
9:50 5.5ft 5s 5s 25 31 mph 1013.5mb 56f 55f
9:40  -   -   -  25 34 mph 1013.5mb 55f 55f
9:30  -   -   -  27 31 mph 1013.5mb 55f 54f
9:20  -   -   -  25 31 mph 1013.5mb 55f 55f
9:10  -   -   -  25 31 mph 1013.6mb 55f 55f
9:00  -   -   -  25 31 mph 1013.4mb 55f 54f
8:50 5ft 6s 5s 27 34 mph 1013.4mb 55f 54f
8:40 5ft  -  5s 25 31 mph 1013.4mb 55f 54f
8:30  -   -   -  27 31 mph 1013.4mb 55f 54f
8:20  -   -   -  27 31 mph 1013.3mb 54f 54f
8:10  -   -   -  27 34 mph 1013mb 54f 54f
8:00  -   -   -  27 31 mph 1013mb 54f 54f
7:50 5.5ft 6s 5s 27 34 mph 1012.9mb 54f 54f
7:40  -   -   -  25 31 mph 1013mb - 54f
7:30  -   -   -  27 34 mph 1012.9mb 54f 54f
7:20  -   -   -  27 34 mph 1012.8mb 54f 54f
7:10  -   -   -  25 31 mph 1012.9mb 54f 54f
7:00  -   -   -  27 34 mph 1012.6mb 54f 54f
6:50 5ft 15s 5s 25 31 mph 1012.5mb 54f 55f
6:40 5ft  -  5s 25 34 mph 1012.5mb 54f 55f
6:30  -   -   -  25 31 mph 1012.5mb 54f 55f
6:20  -   -   -  25 31 mph 1012.5mb 54f 55f
6:10  -   -   -  27 36 mph 1012.5mb 54f 55f
6:00  -   -   -  27 34 mph 1012.3mb 55f 55f
5:50 5.5ft 14s 5s 25 34 mph 1012.3mb 55f 55f
5:40 5.5ft  -  5s 27 34 mph 1012.1mb 55f 55f
5:30  -   -   -  27 36 mph 1012mb 55f 55f
5:20  -   -   -  27 36 mph 1011.8mb 55f 55f
5:10  -   -   -  27 34 mph 1011.8mb 55f 55f
5:00  -   -   -  27 34 mph 1011.5mb 55f 55f
4:50 5.5ft 5s 5s 25 31 mph 1011.6mb 55f 55f
4:40 5.5ft  -  5s 27 34 mph 1011.6mb 55f 55f
4:30  -   -   -  27 34 mph 1011.5mb 55f 55f
4:20  -   -   -  27 34 mph 1011.5mb 55f 55f
4:10  -   -   -  27 34 mph 1011.4mb 55f 55f
4:00  -   -   -  27 31 mph 1011.4mb 56f 55f
3:50 5.5ft 5s 5s 27 34 mph 1011.3mb 55f 55f
3:40  -   -   -  27 34 mph 1011.3mb 55f 55f
3:30  -   -   -  27 34 mph 1011.4mb 56f 55f
3:20  -   -   -  27 34 mph 1011.4mb 56f 55f
3:10  -   -   -  27 34 mph 1011.3mb 56f 55f
3:00  -   -   -  27 34 mph 1011.4mb 56f 55f
2:50 5.5ft 6s 5s 27 34 mph 1011.1mb 56f 56f
2:40 5.5ft  -  5s 27 31 mph 1011.3mb - 56f
2:30  -   -   -  27 34 mph 1011.3mb 56f 56f
2:20  -   -   -  27 34 mph 1011.3mb 56f 56f
2:10  -   -   -  27 36 mph 1011.1mb 56f 56f
2:00  -   -   -  27 34 mph 1011.5mb 56f 56f
1:50 6ft 15s 5s 27 34 mph 1011.3mb 56f 56f
1:40 6ft  -  5s 27 34 mph 1011.3mb 56f 56f
1:30  -   -   -  27 34 mph 1011.3mb 56f 56f
1:20  -   -   -  27 31 mph 1011.4mb 56f 56f
1:10  -   -   -  25 31 mph 1011.4mb 56f 56f
1:00  -   -   -  27 34 mph 1011.4mb 56f 56f
12:50 6ft 5s 5s 25 34 mph 1011.4mb 56f 56f
12:40 6ft  -  5s 27 34 mph 1011.4mb 56f 56f
12:30  -   -   -  25 34 mph 1011.4mb 56f 56f
12:20  -   -   -  25 31 mph 1011.4mb 56f 56f
12:10  -   -   -  25 31 mph 1011.5mb 56f 56f
12:00  -   -   -  27 31 mph 1011.5mb 56f 56f
sáb 06/24 11:50 6ft 6s 5s 27 34 mph 1011.6mb 56f 56f
11:40 6ft  -  5s 27 31 mph 1011.6mb 56f 57f
11:30  -   -   -  27 34 mph 1011.6mb 56f 57f
11:20  -   -   -  27 34 mph 1011.8mb 56f 57f
11:10  -   -   -  25 31 mph 1011.9mb 56f 57f
11:00  -   -   -  25 31 mph 1011.9mb 56f 57f
10:50 6ft 5s 5s 27 34 mph 1011.5mb 56f 57f
10:40  -   -   -  27 31 mph 1011.8mb 56f 57f
10:30  -   -   -  27 34 mph 1011.8mb 56f 57f
10:20  -   -   -  27 31 mph 1011.8mb 56f 57f
10:10  -   -   -  27 34 mph 1011.6mb 56f 57f
10:00  -   -   -  27 36 mph 1011.5mb 56f 57f
9:50 5.5ft 15s 5s 27 34 mph 1011.5mb 57f 57f
9:40 5.5ft  -  5s 25 36 mph 1011.8mb 57f 57f
9:30  -   -   -  27 36 mph 1011.5mb 57f 57f
9:20  -   -   -  25 31 mph 1011.5mb 57f 57f
9:10  -   -   -  29 38 mph 1011.4mb 57f 58f
9:00  -   -   -  29 36 mph 1011.1mb 57f 58f
8:50 5.5ft 5s 5s 27 36 mph 1011.3mb 57f 58f
8:40 5.5ft  -  5s 25 31 mph 1011.4mb 57f 58f
8:30  -   -   -  27 34 mph 1011.4mb - 58f
8:20  -   -   -  27 36 mph 1011.3mb 58f 58f
8:10  -   -   -  27 34 mph 1011.4mb 58f 58f
8:00  -   -   -  27 36 mph 1011.5mb 58f 58f
7:50 5ft 5s 5s 29 36 mph 1011.4mb 58f 58f
7:40 5ft  -  5s 27 34 mph 1011.5mb 58f 58f
7:30  -   -   -  27 34 mph 1011.4mb 58f 58f
7:20  -   -   -  27 34 mph 1011.4mb 58f 58f
7:10  -   -   -  27 31 mph 1011.5mb 58f 58f
7:00  -   -   -  27 34 mph 1011.5mb 59f 58f
6:50 5ft 15s 5s 25 31 mph 1011.5mb 59f 58f
6:40  -   -   -  25 31 mph 1011.6mb 59f 59f
6:30  -   -   -  25 31 mph 1011.5mb 59f 59f
6:20  -   -   -  25 31 mph 1011.5mb 59f 59f
6:10  -   -   -  25 29 mph 1011.5mb 59f 59f
6:00  -   -   -  25 34 mph 1011.5mb 60f 59f
5:50 4.5ft  -  5s 27 31 mph 1011.5mb 59f 59f
5:40 4.5ft 15s 5s  -  mph - - -
5:30  -   -   -  25 34 mph 1011.6mb 60f 59f
5:20  -   -   -  25 31 mph 1011.6mb 59f 59f
5:10  -   -   -  25 31 mph 1011.9mb - 59f
5:00  -   -   -  25 31 mph 1011.9mb 60f 59f
4:50 4.5ft 15s 5s 25 31 mph 1011.8mb 60f 59f
4:40 4.5ft  -  5s 25 31 mph 1012mb 60f 59f
4:30  -   -   -  25 31 mph 1012.3mb 60f 59f
4:20  -   -   -  25 31 mph 1012.3mb 60f 59f
4:10  -   -   -  25 31 mph 1012.3mb 60f 59f
4:00  -   -   -  25 29 mph 1012.3mb 60f 59f
3:50 5ft 15s 5s 27 34 mph 1012.4mb 60f 59f
3:40  -   -   -  25 31 mph 1012.3mb 60f 59f
3:30  -   -   -  27 31 mph 1012.4mb 60f 59f
3:20  -   -   -  25 31 mph 1012.4mb 60f 59f
3:10  -   -   -  25 31 mph 1012.5mb 60f 59f
3:00  -   -   -  25 29 mph 1012.5mb 60f 59f
2:50 4.5ft 15s 5s 22 29 mph 1012.9mb 60f 59f
2:40  -   -   -  25 29 mph 1012.9mb 60f 59f
2:30  -   -   -  25 29 mph 1012.9mb 60f 59f
2:20  -   -   -  25 29 mph 1012.9mb 60f 59f
2:10  -   -   -  25 29 mph 1013mb 60f 59f
2:00  -   -   -  22 27 mph 1013.1mb 60f 59f
1:50 4.5ft 15s 5s 25 29 mph 1013.1mb 60f 59f
1:40  -   -   -  25 29 mph 1013.1mb 60f 59f
1:30  -   -   -  22 29 mph 1013.3mb 60f 59f
1:20  -   -   -  22 27 mph 1013.3mb 60f 59f
1:10  -   -   -  22 27 mph 1013.4mb 60f 59f
1:00  -   -   -  20 25 mph 1013.5mb 60f 59f
12:50 5.5ft 16s 6s 22 29 mph 1013.5mb 60f 58f
12:40  -   -   -  22 29 mph 1013.4mb 60f 58f
12:30  -   -   -  22 27 mph 1013.3mb 60f 58f
12:20  -   -   -  20 27 mph 1013.3mb 60f 58f
12:10  -   -   -  20 27 mph 1013.3mb 60f 58f
12:00  -   -   -  20 27 mph 1013.5mb 60f 58f
11:50 5ft 15s 5s 22 27 mph 1013.5mb 60f 58f
11:40 5ft  -  5s 20 27 mph 1013.5mb 60f 58f
11:30  -   -   -  22 27 mph 1013.6mb 60f 58f
11:20  -   -   -  22 27 mph 1013.4mb 60f 58f
11:10  -   -   -  22 29 mph 1013.4mb 60f 58f
11:00  -   -   -  22 27 mph 1013.4mb 60f 58f
10:50 5ft 15s 6s 22 27 mph 1013.4mb 60f 58f
10:40  -   -   -  22 29 mph 1013mb 60f 57f
10:30  -   -   -  22 29 mph 1013mb 60f 57f
10:20  -   -   -  20 27 mph 1013mb 60f 57f
10:10  -   -   -  20 25 mph 1012.9mb 60f 57f
10:00  -   -   -  22 27 mph 1012.8mb 60f 57f
9:50 5ft 16s 6s 22 27 mph 1013mb 60f 57f
9:40 5ft  -  6s 22 27 mph 1013mb 59f 57f
9:30  -   -   -  22 29 mph 1013mb 59f 57f
9:20  -   -   -  25 31 mph 1012.9mb 59f 57f
9:10  -   -   -  25 31 mph 1013mb 59f 58f
9:00  -   -   -  25 31 mph 1013mb 59f 57f
8:50 5ft 15s 6s 27 31 mph 1012.3mb 59f 57f
8:40  -   -   -  22 29 mph 1012.3mb 59f 57f
8:30  -   -   -  22 29 mph 1012.4mb 58f 57f
8:20  -   -   -  22 27 mph 1012.5mb 58f 57f
8:10  -   -   -  22 27 mph 1013.1mb 58f 57f
8:00  -   -   -  20 27 mph 1013mb 58f 57f
7:50 4.5ft 16s 5s 22 29 mph 1012.5mb 58f 57f
7:40 4.5ft  -  5s 20 27 mph 1012.4mb 58f 56f
7:30  -   -   -  22 29 mph 1012.8mb 58f 57f
7:20  -   -   -  22 29 mph 1012.4mb 58f 57f
7:10  -   -   -  25 31 mph 1012.1mb 58f 57f
7:00  -   -   -  20 27 mph 1012.9mb 58f 57f
6:50 4.5ft 15s 5s 22 27 mph 1012.8mb 58f 57f
6:40 4.5ft  -  5s 22 27 mph 1012.8mb 58f 57f
6:30  -   -   -  22 27 mph 1012.9mb 58f 57f
6:20  -   -   -  25 31 mph 1012.9mb 58f 57f
6:10  -   -   -  22 27 mph 1012.9mb 58f 57f
6:00  -   -   -  20 27 mph 1013mb 58f 57f
5:50 5ft 16s 6s 22 31 mph 1012.6mb 58f 57f
5:40 5ft  -  6s 25 29 mph 1011.9mb 58f 57f
5:30  -   -   -  22 27 mph 1012.1mb 58f 57f
5:20  -   -   -  22 29 mph 1012.6mb 58f 57f
5:10  -   -   -  22 29 mph 1012mb 58f 57f
5:00  -   -   -  25 31 mph 1012mb 58f 56f
4:50 5ft 11s 6s 20 27 mph 1012.4mb 58f 57f
4:40  -   -   -  22 29 mph 1011.6mb 58f 57f
4:30  -   -   -  22 29 mph 1012mb 58f 57f
4:20  -   -   -  25 29 mph 1011.5mb 58f 57f
4:10  -   -   -  20 27 mph 1012mb 57f 57f
4:00  -   -   -  20 25 mph 1012.3mb 58f 57f
3:50 5ft 16s 6s 20 25 mph 1012.6mb 58f 57f
3:40 5ft  -  6s 20 25 mph 1012.1mb 58f 57f
3:30  -   -   -  20 25 mph 1012.5mb 58f 57f
3:20  -   -   -  20 25 mph 1012.5mb 58f 57f
3:10  -   -   -  20 25 mph 1012.5mb 58f 57f
3:00  -   -   -  18 22 mph 1013mb 58f 57f
2:50 5ft 16s 6s 16 20 mph 1013.3mb 58f 57f
2:40 5ft  -  6s 18 20 mph 1013mb 58f 57f
2:30  -   -   -  20 22 mph 1013mb 58f 57f
2:20  -   -   -  18 22 mph 1012.9mb 58f 57f
2:10  -   -   -  18 22 mph 1013.1mb 58f 57f
2:00  -   -   -  18 25 mph 1013.5mb 58f 57f
1:50 5ft 16s 6s 20 25 mph 1013mb 58f 57f
1:40 5ft  -  6s 20 25 mph 1013.1mb 58f 57f
1:30  -   -   -  22 25 mph 1013mb 58f 57f
1:20  -   -   -  20 25 mph 1013.1mb 57f 57f
1:10  -   -   -  20 25 mph 1013mb 57f 57f
1:00  -   -   -  22 27 mph 1013mb 57f 56f
12:50 5ft 11s 6s 20 25 mph 1013mb 57f 56f
12:40 5ft  -  6s 20 25 mph 1013.5mb 57f 56f
12:30  -   -   -  20 25 mph 1013mb 57f 56f
12:20  -   -   -  20 27 mph 1013mb 58f 57f
12:10  -   -   -  22 27 mph 1012.5mb 58f 57f
12:00  -   -   -  22 27 mph 1012.5mb 58f 57f
vie 06/23 11:50 5ft 16s 6s 20 27 mph 1012.9mb 58f 57f
11:40 5ft  -  6s 20 25 mph 1012.8mb 58f 57f
11:30  -   -   -  20 25 mph 1012.8mb 58f 57f
11:20  -   -   -  20 25 mph 1012.9mb 58f 57f
11:10  -   -   -  20 27 mph 1012.6mb 58f 56f
11:00  -   -   -  20 27 mph 1012.3mb 58f 57f
10:50 5ft 16s 6s 20 27 mph 1012mb 58f 57f
10:40 5ft  -  6s 22 27 mph 1012mb 58f 57f
10:30  -   -   -  22 29 mph 1012.3mb 58f 57f
10:20  -   -   -  22 29 mph 1012.4mb 58f 57f
10:10  -   -   -  20 25 mph 1012.4mb 58f 57f
10:00  -   -   -  22 29 mph 1012.5mb 58f 57f
9:50 5ft 10s 6s 25 29 mph 1012.4mb 59f 58f
9:40  -   -   -  25 29 mph 1012.3mb 59f 58f
9:30  -   -   -  22 27 mph 1012.5mb 59f 58f
9:20  -   -   -  22 27 mph 1012.5mb 59f 58f
9:10  -   -   -  20 25 mph 1012.6mb 59f 58f
9:00  -   -   -  18 22 mph 1013mb 59f 58f
8:50 5ft 16s 6s 18 22 mph 1013.1mb 59f 58f
8:40 5ft  -  6s 18 22 mph 1013.1mb 60f 58f
8:30  -   -   -  20 22 mph 1012.9mb 60f 58f
8:20  -   -   -  18 22 mph 1012.9mb 60f 58f
8:10  -   -   -  18 25 mph 1012.8mb 60f 58f
8:00  -   -   -  18 20 mph 1012.9mb 60f 58f
7:50 4.5ft 10s 7s 18 22 mph 1012.8mb 60f 59f
7:40 4.5ft  -  7s 18 22 mph 1012.9mb 60f 59f
7:30  -   -   -  16 20 mph 1013mb 60f 59f
7:20  -   -   -  18 22 mph 1013mb 60f 59f
7:10  -   -   -  18 20 mph 1012.9mb 60f 59f
7:00  -   -   -  18 22 mph 1013mb 60f 59f
6:50 5ft 9s 7s 16 22 mph 1013mb 60f 59f
6:40 5ft  -  7s 18 20 mph 1012.9mb 61f 59f
6:30  -   -   -  16 18 mph 1013mb 61f 59f
6:20  -   -   -  16 20 mph 1013mb 61f 59f
6:10  -   -   -  16 20 mph 1013mb 61f 59f
6:00  -   -   -  13 18 mph 1013mb 60f 59f
5:50 5ft 10s 8s 13 18 mph 1012.9mb 60f 59f
5:40  -   -   -  13 16 mph 1013mb 60f 59f
5:30  -   -   -  13 16 mph 1013mb 61f 59f
5:20  -   -   -  13 18 mph 1013.1mb 60f 59f
5:10  -   -   -  13 18 mph 1013mb 61f 59f
5:00  -   -   -  13 18 mph 1013mb 61f 59f
4:50 4.5ft 12s 8s 11 16 mph 1013.1mb 61f 59f
4:40 4.5ft  -  8s 11 16 mph 1013.1mb 61f 59f
4:30  -   -   -  11 16 mph 1013.1mb 61f 59f
4:20  -   -   -  11 16 mph 1013mb 61f 59f
4:10  -   -   -  11 16 mph 1013.4mb 61f 59f
4:00  -   -   -  9 16 mph 1013.4mb 61f 59f
3:50 5ft 16s 9s 9 11 mph 1013.5mb 60f 59f
3:40  -   -   -  9 11 mph 1013.6mb 60f 59f
3:30  -   -   -  9 11 mph 1013.8mb - 59f
3:20  -   -   -  7 9 mph 1013.9mb 61f 59f
3:10  -   -   -  7 9 mph 1014mb 61f 59f
3:00  -   -   -  7 9 mph 1014mb 61f 59f
2:50 4.5ft 16s 9s 7 11 mph 1013.9mb 61f 59f
2:40 4.5ft  -  9s 7 9 mph 1014mb 61f 58f
2:30  -   -   -  7 9 mph 1014mb 61f 58f
2:20  -   -   -  7 9 mph 1014mb 61f 58f
2:10  -   -   -  7 9 mph 1014mb 61f 58f
2:00  -   -   -  4 7 mph 1014mb 60f 59f
1:50 5ft 16s 10s 4 7 mph 1014mb 60f 59f
1:40  -   -   -  4 7 mph 1014mb 60f 59f
1:30  -   -   -  4 7 mph 1014mb 60f 59f
1:20  -   -   -  4 7 mph 1014mb 60f 58f
1:10  -   -   -  4 7 mph 1014mb 60f 58f
1:00  -   -   -  2 4 mph 1014.4mb 60f 58f
12:50 4.5ft 16s 8s 4 7 mph 1014.3mb 60f 58f
12:40  -   -   -  4 7 mph 1014mb 60f 58f
12:30  -   -   -  4 7 mph 1014mb 60f 58f
12:20  -   -   -  4 7 mph 1014mb 60f 58f
12:10  -   -   -  4 7 mph 1013.9mb 59f 58f
12:00  -   -   -  4 7 mph 1013.8mb 58f 57f
11:50 4.5ft 16s 8s 4 7 mph 1013.6mb 58f 57f
11:40  -   -   -  7 9 mph 1013.5mb 58f 57f
11:30  -   -   -  7 7 mph 1013.6mb 58f 57f
11:20  -   -   -  4 9 mph 1013.6mb 58f 57f
11:10  -   -   -  7 9 mph 1013.5mb 58f 57f
11:00  -   -   -  7 9 mph 1013.4mb 58f 57f
10:50 4.5ft 10s 8s 7 9 mph 1013.4mb 58f 57f
10:40 4.5ft  -  8s 7 9 mph 1013.3mb 58f 57f
10:30  -   -   -  7 9 mph 1013.1mb 58f 57f
10:20  -   -   -  7 9 mph 1013mb 59f 57f
10:10  -   -   -  7 9 mph 1013.1mb 59f 57f
10:00  -   -   -  7 9 mph 1013mb 59f 57f
9:50 5ft 17s 9s 7 9 mph 1013.1mb 59f 57f
9:40 5ft  -  9s 7 9 mph 1013mb 59f 57f
9:30  -   -   -  7 9 mph 1013mb 59f 57f
9:20  -   -   -  7 9 mph 1013.1mb 60f 57f
9:10  -   -   -  4 7 mph 1013.1mb 60f 57f
9:00  -   -   -  4 7 mph 1013mb 60f 57f
8:50 5ft 16s 8s 4 7 mph 1013mb 60f 57f
8:40  -   -   -  7 9 mph 1013mb 60f 57f
8:30  -   -   -  4 7 mph 1013mb 60f 57f
8:20  -   -   -  4 7 mph 1013mb 60f 57f
8:10  -   -   -  4 4 mph 1013mb 60f 57f
8:00  -   -   -  4 4 mph 1012.9mb 59f 57f
7:50 5ft 16s 8s 4 7 mph 1012.8mb 59f 57f
7:40 5ft  -  8s 7 9 mph 1012.6mb 59f 57f
7:30  -   -   -  7 9 mph 1012.6mb 59f 57f
7:20  -   -   -  7 7 mph 1012.6mb 59f 57f
7:10  -   -   -  7 7 mph 1012.5mb 59f 57f
7:00  -   -   -  7 9 mph 1012.5mb 59f 57f
6:50 5ft 10s 8s 7 7 mph 1012.5mb 59f 57f
6:40 5ft  -  8s 7 9 mph 1012.5mb 59f 57f
6:30  -   -   -  7 9 mph 1012.3mb 59f 57f
6:20  -   -   -  7 9 mph 1012.1mb 59f 57f
6:10  -   -   -  7 9 mph 1012.1mb 59f 57f
6:00  -   -   -  7 9 mph 1012mb 59f 57f
5:50 5ft 9s 8s 7 9 mph 1012mb 58f 57f
5:40 5ft  -  8s 7 9 mph 1012mb 58f 57f
5:30  -   -   -  4 7 mph 1012mb 58f 57f
5:20  -   -   -  4 7 mph 1012mb 58f 57f
5:10  -   -   -  4 7 mph 1011.9mb 59f 57f
5:00  -   -   -  4 7 mph 1011.9mb 59f 57f
4:50 5ft 11s 8s 4 7 mph 1011.9mb 59f 57f
4:40 5ft  -  8s 4 7 mph 1011.9mb 59f 57f
4:30  -   -   -  4 7 mph 1011.9mb 59f 57f
4:20  -   -   -  4 7 mph 1011.9mb 58f 57f
4:10  -   -   -  4 4 mph 1011.8mb 58f 57f
4:00  -   -   -  2 7 mph 1011.8mb 58f 57f
3:50 5ft 11s 8s 2 4 mph 1011.6mb 59f 57f
3:40  -   -   -  4 7 mph 1011.6mb 59f 57f
3:30  -   -   -  4 7 mph 1011.8mb 59f 57f
3:20  -   -   -  4 7 mph 1011.6mb 58f 57f
3:10  -   -   -  4 7 mph 1011.6mb 58f 57f
3:00  -   -   -  4 7 mph 1011.5mb 58f 57f
2:50 5ft 11s 8s 4 7 mph 1011.5mb 58f 57f
2:40 5ft  -  8s 4 7 mph 1011.5mb 58f 57f
2:30  -   -   -  4 7 mph 1011.5mb 58f 57f
2:20  -   -   -  4 7 mph 1011.5mb 58f 57f
2:10  -   -   -  2 7 mph 1011.6mb 58f 57f
2:00  -   -   -  4 7 mph 1011.6mb 58f 57f
1:50 4.5ft 17s 8s 4 9 mph 1011.6mb 58f 57f
1:40 4.5ft  -  8s 7 9 mph 1011.6mb 58f 57f
1:30  -   -   -  7 9 mph 1011.8mb 58f 57f
1:20  -   -   -  7 9 mph 1011.8mb 59f 57f
1:10  -   -   -  7 7 mph 1011.6mb 58f 57f
1:00  -   -   -  7 9 mph 1011.5mb 58f 57f
12:50 4.5ft 11s 8s 4 7 mph 1011.5mb 58f 57f
12:40 4.5ft  -  8s 4 7 mph 1011.5mb 58f 57f
12:30  -   -   -  4 7 mph 1011.5mb 58f 57f
12:20  -   -   -  4 4 mph 1011.5mb 58f 57f
12:10  -   -   -  4 4 mph 1011.5mb 58f 57f
12:00  -   -   -  2 7 mph 1011.5mb 58f 57f
jue 06/22 11:50 4.5ft 11s 8s 2 4 mph 1011.4mb 58f 57f
11:40  -   -   -  2 4 mph 1011.3mb 58f 57f
11:30  -   -   -  2 4 mph 1011.3mb 58f 57f
11:20  -   -   -  4 7 mph 1011.3mb 58f 57f
11:10  -   -   -  4 9 mph 1011.3mb 58f 57f
11:00  -   -   -  2 7 mph 1011.3mb 57f 57f
10:50 5ft 11s 8s 2 4 mph 1011.1mb 58f 57f
10:40 5ft  -  8s 2 4 mph 1011.1mb 59f 57f
10:30  -   -   -  4 7 mph 1011mb 58f 57f
10:20  -   -   -  4 9 mph 1011mb 58f 57f
10:10  -   -   -  4 7 mph 1010.8mb 58f 57f
10:00  -   -   -  4 7 mph 1010.8mb 58f 57f
9:50 5ft 17s 8s 7 7 mph 1010.5mb 59f 57f
9:40  -   -   -  4 7 mph 1010.4mb 59f 58f
9:30  -   -   -  7 9 mph 1010.3mb 59f 58f
9:20  -   -   -  4 9 mph 1010.3mb 58f 58f
9:10  -   -   -  4 4 mph 1010.3mb 58f 58f
9:00  -   -   -  4 9 mph 1010.3mb 58f 58f
8:50 5ft 11s 8s 7 9 mph 1010.1mb 58f 58f
8:40 5ft  -  8s 4 7 mph 1010.1mb 57f 58f
8:30  -   -   -  7 9 mph 1010mb 58f 58f
8:20  -   -   -  7 9 mph 1009.9mb 58f 58f
8:10  -   -   -  7 9 mph 1009.9mb 58f 58f
8:00  -   -   -  7 9 mph 1009.8mb 58f 58f
7:50 5ft 15s 8s 7 9 mph 1009.6mb 58f 58f
7:40 5ft  -  8s 7 9 mph 1009.5mb 59f 58f
7:30  -   -   -  7 7 mph 1009.5mb 58f 58f
7:20  -   -   -  7 9 mph 1009.5mb 59f 58f
7:10  -   -   -  7 9 mph 1009.6mb 59f 58f
7:00  -   -   -  4 7 mph 1009.5mb 59f 58f
6:50 5.5ft 11s 8s 4 7 mph 1009.5mb 59f 58f
6:40 5.5ft  -  8s 4 7 mph 1009.5mb 59f 58f
6:30  -   -   -  7 9 mph 1009.5mb 59f 58f
6:20  -   -   -  7 9 mph 1009.5mb 59f 58f
6:10  -   -   -  7 9 mph 1009.4mb 59f 58f
6:00  -   -   -  7 9 mph 1009.5mb 59f -
5:50 6ft 11s  -  7 9 mph 1009.5mb 59f 58f
5:40  -   -   -  9 11 mph 1009.5mb 59f 58f
5:30  -   -   -  9 9 mph 1009.5mb 59f 59f
5:20  -   -   -  9 11 mph 1009.5mb 59f 59f
5:10  -   -   -  9 11 mph 1009.8mb 58f 59f
5:00  -   -   -  9 11 mph 1009.8mb 59f 58f
4:50 6ft 11s 8s 9 9 mph 1009.8mb 59f 59f
4:40 6ft  -  8s 9 11 mph 1009.8mb 58f 59f
4:30  -   -   -  9 9 mph 1009.8mb 59f 58f
4:20  -   -   -  7 9 mph 1009.8mb 58f 58f
4:10  -   -   -  7 9 mph 1009.8mb 58f 58f
4:00  -   -   -  7 9 mph 1009.9mb 59f 58f
3:50 5.5ft 11s 8s 9 11 mph 1010mb 60f 58f
3:40  -   -   -  9 11 mph 1010mb 59f 58f
3:30  -   -   -  9 9 mph 1010mb 59f 58f
3:20  -   -   -  9 9 mph 1010mb 59f 58f
3:10  -   -   -  9 11 mph 1010mb 60f 58f
3:00  -   -   -  9 11 mph 1010.1mb 60f 58f
2:50 5.5ft 11s 8s 9 11 mph 1010.1mb 60f 58f
2:40  -   -   -  9 11 mph 1010.3mb 59f 58f
2:30  -   -   -  9 11 mph 1010.3mb 60f 58f
2:20  -   -   -  7 9 mph 1010.3mb 60f 58f
2:10  -   -   -  7 9 mph 1010.4mb 60f 59f
2:00  -   -   -  7 9 mph 1010.4mb 59f 59f
1:50 5ft 13s 8s 7 11 mph 1010.1mb 59f 59f
1:40  -   -   -  7 11 mph 1010.3mb 59f 58f
1:30  -   -   -  7 9 mph 1010.4mb 59f 58f
1:20  -   -   -  7 9 mph 1010.5mb 60f 58f
1:10  -   -   -  7 9 mph 1010.5mb 58f 58f
1:00  -   -   -  7 9 mph 1010.5mb 60f 58f
12:50 5ft 10s 8s 7 9 mph 1010.5mb 59f 58f
12:40 5ft  -  8s 7 9 mph 1010.5mb 59f 58f
12:30  -   -   -  4 7 mph 1010.4mb 59f 57f
12:20  -   -   -  4 7 mph 1010.4mb 59f 57f
12:10  -   -   -  7 9 mph 1010.5mb 59f 57f
12:00  -   -   -  7 9 mph 1010.4mb - 57f
11:50 5ft 11s 8s 7 9 mph 1010.4mb 59f 57f
11:40 5ft  -  8s 7 9 mph 1010mb 59f 57f
11:30  -   -   -  7 9 mph 1010.1mb 59f 57f
11:20  -   -   -  7 9 mph 1010mb 59f 56f
11:10  -   -   -  7 9 mph 1010mb 59f 56f
11:00  -   -   -  7 9 mph 1010mb 59f 56f
10:50 5.5ft 11s 8s 7 9 mph 1009.8mb 59f 56f
10:40  -   -   -  4 7 mph 1009.5mb 59f 56f
10:30  -   -   -  4 9 mph 1009.5mb 59f 56f
10:20  -   -   -  4 7 mph 1009.4mb 59f 56f
10:10  -   -   -  4 7 mph 1009.3mb 60f 56f
10:00  -   -   -  4 7 mph 1009.3mb 59f 56f
9:50 5.5ft 13s 8s 4 4 mph 1009.3mb 59f 55f
9:40  -   -   -  4 7 mph 1009.1mb 59f 55f
9:30  -   -   -  4 7 mph 1009.1mb 59f 55f
9:20  -   -   -  2 4 mph 1009.3mb 60f 55f
9:10  -   -   -  4 7 mph 1009mb 60f 55f
9:00  -   -   -  4 7 mph 1009mb 60f 55f
8:50 6ft 11s 8s 2 7 mph 1008.9mb 60f 55f
8:40 6ft  -  8s 4 7 mph 1008.8mb 59f 55f
8:30  -   -   -  2 4 mph 1008.8mb 59f 55f
8:20  -   -   -  2 4 mph 1008.8mb 59f 55f
8:10  -   -   -  2 4 mph 1008.5mb 59f 55f
8:00  -   -   -  2 4 mph 1008.5mb 59f 55f
7:50 6ft 11s 7s  -  4 mph 1008.4mb 59f 55f
7:40 6ft  -  7s 2 4 mph 1008.4mb 59f 55f
7:30  -   -   -  2 4 mph 1008.3mb 59f 55f
7:20  -   -   -   -  2 mph 1008.1mb 59f 55f
7:10  -   -   -  2 4 mph 1008mb 59f 55f